Wind_Speed
7 5 4 2 2 2 3 2 2 1 1 2 2 4 5 5 5 5 4 4 4 4 4 3 2 2 2 3 3 3 3 2 2 2 2 2 2 2 1 2 2 3 3 4 4 4 3 3 2
9 8 7 6 4 4 6 5 4 2 1 1 1 2 3 4 5 5 4 4 5 4 4 3 3 3 4 4 4 4 4 4 4 4 4 4 4 4 4 4 4 5 5 6 6 6 6 5 4
11 10 10 10 8 8 9 7 6 4 3 2 1 1 2 3 4 5 4 4 4 5 5 5 5 6 6 6 7 7 7 7 7 7 6 6 6 6 6 6 7 7 7 7 8 8 8 7 7
13 14 13 13 13 12 11 9 8 8 5 4 3 2 2 3 4 4 4 5 5 5 6 7 8 9 9 9 9 9 10 9 9 9 9 9 9 9 8 8 8 8 8 8 9 9 10 10 9
16 16 16 16 17 16 14 12 11 10 9 7 6 5 4 3 4 5 6 6 6 7 9 10 11 11 11 11 11 11 12 11 11 11 11 11 11 10 10 9 9 9 9 9 10 10 11 11 12
18 18 18 18 21 19 17 15 14 13 12 10 8 7 6 5 5 6 7 8 9 10 11 13 13 14 14 14 13 13 14 13 13 13 13 13 12 12 12 11 10 10 10 11 11 12 12 11 12
20 21 22 23 24 23 20 17 16 15 14 12 10 9 8 7 7 9 10 11 11 13 14 15 15 16 16 16 16 16 16 16 16 16 15 15 15 14 14 13 12 12 12 12 13 13 13 13 13
22 23 24 26 27 27 23 20 18 17 17 16 13 11 10 9 10 11 13 13 14 15 16 17 18 19 19 19 19 19 19 20 19 19 19 18 17 17 16 15 14 14 14 14 14 15 15 15 15
25 24 25 27 29 29 25 23 21 20 20 19 17 15 13 12 13 14 15 15 16 17 18 19 20 21 21 22 21 21 21 22 22 22 22 22 20 19 18 18 17 16 16 16 16 17 17 17 17
26 26 28 30 30 29 27 24 23 22 22 21 20 17 15 16 16 17 18 18 18 19 20 21 22 22 22 23 23 23 23 23 24 24 24 23 22 21 20 19 19 19 19 19 19 19 20 19 19
25 27 29 30 30 29 27 25 23 22 23 22 21 19 19 19 20 20 19 20 20 21 21 21 22 22 22 23 23 24 24 23 24 24 23 22 21 20 20 19 20 20 20 21 20 21 21 21 21
21 24 27 28 29 27 26 25 24 24 24 23 23 22 21 22 22 21 21 22 22 21 21 22 21 22 22 22 22 22 22 22 22 20 20 20 20 20 21 22 21 22 22 22 22 23 23 23 23
14 18 22 24 25 25 24 23 23 24 24 24 24 23 23 23 23 23 23 23 22 22 21 20 20 21 20 20 20 20 20 20 20 21 21 22 22 22 23 23 23 23 24 24 24 25 25 25 25
9 11 15 18 19 21 21 22 22 22 22 23 23 23 23 24 23 23 23 22 21 21 20 18 18 18 18 18 18 18 19 20 21 21 21 22 22 22 23 23 24 24 25 25 26 26 26 26 26
7 7 9 11 13 16 18 19 20 21 20 21 22 23 23 24 23 22 22 21 20 19 18 17 16 17 17 17 18 18 19 19 19 20 20 21 21 22 24 24 24 24 25 26 26 27 27 27 27
7 5 6 7 9 11 14 17 19 20 21 22 23 24 25 24 23 22 21 19 18 16 15 14 15 15 15 16 17 17 17 18 19 20 20 21 22 23 23 24 24 24 25 25 26 27 27 27 27
9 5 5 7 7 9 12 15 17 19 21 21 23 24 25 24 22 20 19 17 14 13 12 12 12 13 14 15 16 17 17 18 20 20 21 22 22 23 24 24 24 24 25 25 25 26 26 27 27
6 6 7 7 6 9 11 14 16 17 19 21 22 23 23 22 19 17 16 13 11 10 10 10 11 13 14 15 16 17 18 19 20 21 21 22 22 23 24 24 24 25 25 25 25 26 26 27 27
7 6 7 7 6 8 11 13 14 16 18 19 19 20 19 17 16 14 12 11 9 9 9 10 11 12 14 15 17 18 19 20 21 21 22 22 23 23 23 24 24 24 25 25 25 25 26 26 26
7 7 8 7 6 8 10 13 14 15 16 16 16 16 15 14 13 10 9 7 7 8 9 10 12 13 15 17 19 20 21 22 22 22 22 23 23 23 23 23 23 24 24 24 25 25 25 25 26
7 6 7 7 7 8 10 11 11 12 11 11 11 11 10 8 8 7 6 5 7 8 10 12 13 15 17 19 20 21 22 23 23 23 22 22 23 23 23 23 23 23 24 24 24 25 25 26 26
6 7 6 7 8 8 9 9 8 8 7 6 5 5 4 3 4 4 4 5 7 9 11 13 15 17 18 19 21 21 22 22 22 22 22 22 22 22 22 22 22 23 23 24 24 25 26 26 27
7 7 7 6 6 7 8 8 8 6 6 5 4 3 4 4 3 3 5 7 9 11 13 15 17 18 18 19 20 20 20 21 21 21 21 21 20 20 20 21 21 22 23 24 25 26 27 27 28
7 7 6 6 6 7 7 6 7 7 6 6 5 5 4 4 5 5 7 9 10 12 14 15 17 18 19 19 19 20 20 20 21 21 21 21 21 20 20 21 21 22 23 24 26 27 28 29 30
6 5 6 7 7 8 7 6 6 6 6 6 7 7 6 6 7 8 9 11 11 13 14 16 17 18 19 19 19 20 20 20 20 21 21 22 22 22 22 23 23 24 25 26 27 28 30 31 32
5 3 2 2 5 7 7 7 7 6 6 7 7 8 8 8 10 11 12 12 13 14 15 17 17 18 18 19 19 20 21 21 21 22 22 23 23 24 25 26 26 27 27 28 29 30 31 32 34
5 4 4 4 5 6 8 9 9 8 8 8 8 8 9 10 11 12 13 13 14 15 16 17 17 18 19 20 20 21 21 22 23 23 24 24 25 26 26 28 29 30 31 31 32 32 33 34 34
6 5 5 4 3 5 9 10 11 10 9 9 9 9 10 11 12 13 13 14 15 15 16 17 18 19 20 21 22 22 23 24 25 25 26 27 27 28 29 30 31 33 33 34 34 34 34 34 35
8 7 6 6 6 3 6 10 11 11 10 10 10 10 11 12 13 14 15 15 15 16 17 18 19 20 21 22 23 24 25 25 26 27 28 29 30 31 31 33 34 35 36 36 36 36 35 35 36
10 10 9 7 9 9 7 11 13 11 10 10 11 11 12 13 14 14 15 15 16 17 18 19 20 21 22 24 25 26 27 28 29 29 30 31 32 33 35 36 37 38 38 38 38 38 37 37 37
Wind_Direction
352 339 319 297 285 284 278 280 277 283 107 92 80 72 64 53 46 38 27 26 21 20 19 12 346 311 287 287 287 291 300 307 312 308 301 296 301 302 295 296 310 319 320 318 316 315 317 321 333
329 318 300 290 278 251 261 272 272 279 285 8 64 59 51 43 42 34 25 24 25 13 360 343 321 299 288 281 279 283 288 292 296 297 292 287 288 288 285 286 288 292 296 298 297 297 294 292 289
309 299 291 289 277 254 260 268 267 261 257 260 291 358 22 27 33 24 22 19 14 356 337 322 310 301 294 288 286 287 289 291 292 291 289 286 286 285 285 285 285 285 288 290 291 291 288 285 280
295 289 282 277 269 266 263 264 259 252 250 253 265 292 345 0 7 6 7 6 351 332 317 309 303 299 297 293 291 290 291 294 292 289 286 285 285 285 285 284 283 283 285 286 287 288 285 280 275
287 282 276 272 267 264 263 259 252 246 249 252 257 272 305 331 339 342 343 339 326 312 304 300 300 299 295 292 291 291 292 294 293 291 289 288 288 287 285 283 283 284 285 286 287 286 286 284 275
278 277 268 257 260 261 258 255 252 249 248 251 258 276 296 308 317 323 324 319 310 302 297 294 295 296 293 289 288 289 292 293 293 292 291 289 287 286 283 279 279 280 282 285 286 285 285 286 284
272 269 263 258 257 255 256 253 250 250 251 250 254 274 290 299 304 308 313 311 304 297 294 291 291 290 289 288 287 287 289 289 290 290 289 289 287 283 282 278 278 278 280 282 282 283 282 282 282
266 263 261 255 251 250 252 249 248 247 249 252 257 269 281 293 305 310 312 310 304 298 292 289 287 285 283 284 286 286 288 287 288 290 287 286 284 281 280 278 278 278 279 280 281 281 279 281 282
263 257 253 250 246 247 248 246 245 248 249 251 257 267 281 292 304 311 310 306 301 296 290 283 283 282 280 279 280 283 285 286 286 286 286 284 281 278 277 276 277 280 280 281 281 280 280 279 280
260 252 248 248 247 245 244 243 244 246 248 253 260 269 283 293 302 308 308 303 298 292 288 282 278 277 277 276 277 280 282 285 287 286 287 285 284 281 281 278 279 281 280 280 281 281 281 280 281
259 249 247 246 245 244 242 240 242 243 248 256 262 272 282 291 300 306 305 301 296 292 287 284 280 277 276 276 278 281 283 286 291 289 288 288 292 288 284 283 283 284 283 283 281 280 280 280 280
263 253 248 246 244 242 240 239 239 242 249 255 262 273 282 291 298 302 303 300 295 293 290 287 282 278 277 279 282 285 286 288 291 294 293 292 291 291 289 287 286 284 283 282 281 281 280 279 278
272 258 252 248 244 240 239 238 239 244 250 256 265 275 282 290 294 297 298 298 294 291 289 287 283 283 283 283 287 290 289 289 291 293 292 292 293 292 289 287 286 284 283 282 280 279 278 277 277
297 272 259 252 245 239 236 239 241 245 251 258 268 275 281 288 292 294 295 296 293 290 288 285 285 285 286 289 293 293 296 295 291 293 293 292 292 290 289 288 286 285 283 281 279 277 275 274 273
329 304 279 261 250 242 238 239 243 249 256 262 269 275 281 285 288 292 292 293 292 289 287 283 284 286 290 294 295 296 297 298 296 296 295 294 293 291 289 288 287 285 282 279 277 276 275 274 272
356 335 301 275 259 248 244 246 247 254 259 264 270 276 280 283 285 288 289 291 291 288 288 286 287 290 293 296 298 298 298 297 296 295 293 292 291 290 289 288 288 285 283 281 279 277 275 273 272
4 347 289 279 261 252 246 247 250 256 260 264 270 275 278 281 282 284 287 288 287 289 290 289 292 296 298 300 301 300 299 298 297 296 294 293 292 291 290 290 288 286 284 282 280 278 274 272 271
323 314 298 283 269 261 258 257 258 262 265 268 273 275 275 275 277 280 281 281 285 292 295 295 299 301 302 303 303 303 303 302 301 299 298 296 295 294 292 290 289 287 285 283 281 279 275 272 269
359 343 317 304 287 269 268 270 270 269 270 273 274 275 273 269 271 273 276 279 287 296 299 302 306 308 307 307 309 309 309 308 307 306 304 302 300 298 296 294 292 289 287 285 283 280 277 273 270
2 350 336 326 302 289 280 278 279 278 276 277 276 274 271 269 268 268 274 280 293 302 306 311 314 314 314 315 316 316 315 315 314 313 310 308 305 303 301 298 295 292 290 288 285 282 280 277 272
345 342 332 332 322 307 299 290 289 292 285 278 277 278 274 268 267 273 281 296 307 315 317 319 319 319 319 319 318 318 318 317 316 315 313 311 308 306 304 302 299 297 294 291 287 284 281 279 275
329 323 320 322 332 333 333 332 325 318 315 306 298 291 281 277 283 287 321 329 326 325 324 323 322 322 321 320 319 319 319 318 317 316 314 313 311 309 307 305 303 301 299 296 292 288 284 281 278
313 317 317 321 332 337 337 345 345 352 357 4 8 25 33 35 20 352 345 335 329 327 325 325 324 323 321 321 321 320 320 319 319 318 317 316 315 313 312 310 307 305 303 300 296 292 288 284 280
314 317 321 326 341 331 323 339 344 354 10 23 24 24 22 15 4 351 340 333 329 328 327 325 323 322 321 320 321 320 320 320 319 319 318 318 316 315 314 313 311 309 306 303 300 296 291 287 283
324 348 3 350 338 308 307 316 324 335 349 357 3 5 2 355 349 344 336 330 328 325 323 322 322 323 322 321 321 321 321 320 320 320 319 318 317 315 314 313 312 310 308 306 303 299 295 290 285
332 348 330 301 301 304 302 303 309 318 329 336 343 347 345 340 336 332 328 324 322 321 321 321 321 322 322 321 321 320 320 320 319 319 318 317 316 315 314 314 313 311 310 308 305 301 296 292 287
310 325 318 335 322 321 303 301 307 315 321 326 331 332 330 327 324 320 318 316 316 317 317 318 319 319 320 320 319 319 319 318 318 318 317 317 316 315 315 314 313 312 311 309 306 302 298 294 289
288 301 317 332 310 321 312 305 303 308 314 317 318 319 318 316 313 310 308 308 309 311 313 314 316 318 319 320 321 321 320 319 319 318 318 317 317 316 315 314 313 312 311 309 306 303 299 295 290
281 286 298 307 297 304 307 296 298 301 303 304 308 310 310 309 307 306 304 304 306 308 310 312 315 319 321 323 324 324 323 322 321 320 319 318 317 317 315 314 313 312 311 309 306 303 299 295 291
273 278 287 297 296 295 297 292 289 290 290 294 300 304 304 303 302 302 300 300 303 306 309 313 317 320 323 325 325 325 324 323 322 321 320 319 318 317 316 315 313 312 310 308 306 303 299 295 291
Height
5931 5930 5930 5930 5931 5931 5930 5930 5929 5928 5927 5926 5925 5924 5923 5923 5923 5925 5922 5920 5919 5919 5918 5918 5919 5919 5918 5918 5917 5916 5916 5915 5914 5914 5913 5912 5912 5911 5911 5910 5910 5909 5909 5908 5908 5907 5907 5907 5907
5930 5929 5929 5930 5930 5931 5930 5929 5928 5927 5926 5925 5924 5923 5922 5921 5921 5921 5920 5919 5919 5918 5918 5918 5918 5918 5918 5917 5916 5916 5915 5914 5913 5913 5912 5911 5911 5910 5910 5909 5909 5908 5908 5907 5907 5907 5906 5906 5906
5928 5928 5928 5928 5928 5929 5928 5928 5927 5926 5925 5924 5923 5923 5922 5921 5920 5920 5919 5918 5918 5917 5917 5917 5917 5917 5917 5916 5916 5915 5914 5913 5912 5911 5911 5910 5909 5909 5908 5908 5907 5907 5906 5906 5906 5905 5905 5905 5905
5926 5926 5926 5927 5926 5926 5926 5926 5926 5925 5924 5923 5922 5921 5920 5920 5919 5919 5918 5917 5917 5917 5916 5916 5916 5916 5915 5914 5914 5913 5913 5912 5911 5910 5909 5908 5908 5907 5907 5906 5906 5905 5905 5904 5904 5903 5903 5903 5903
5923 5923 5923 5923 5922 5922 5923 5923 5923 5923 5923 5922 5921 5920 5919 5918 5918 5918 5917 5917 5916 5916 5915 5915 5914 5914 5913 5912 5912 5911 5911 5910 5909 5908 5908 5907 5906 5905 5905 5904 5904 5903 5903 5902 5902 5901 5901 5900 5900
5920 5920 5920 5919 5917 5918 5919 5920 5920 5920 5920 5920 5919 5919 5918 5917 5917 5917 5916 5916 5915 5914 5914 5913 5912 5912 5911 5910 5909 5909 5908 5907 5907 5906 5905 5905 5904 5903 5902 5902 5901 5901 5900 5900 5899 5899 5898 5898 5897
5917 5916 5914 5914 5913 5914 5915 5917 5917 5918 5918 5917 5917 5917 5916 5916 5915 5915 5915 5914 5913 5912 5912 5911 5910 5909 5908 5907 5906 5906 5905 5904 5903 5903 5902 5901 5901 5900 5899 5899 5898 5898 5897 5897 5896 5896 5895 5895 5894
5910 5911 5910 5908 5908 5909 5911 5913 5914 5915 5915 5915 5915 5915 5914 5914 5914 5913 5913 5912 5911 5910 5909 5908 5907 5906 5905 5904 5903 5902 5901 5901 5900 5899 5898 5897 5897 5896 5895 5895 5894 5894 5894 5893 5893 5892 5892 5891 5891
5903 5906 5904 5903 5903 5903 5906 5909 5911 5911 5912 5912 5912 5912 5912 5912 5911 5911 5910 5909 5908 5907 5906 5905 5904 5902 5901 5900 5899 5898 5898 5897 5896 5895 5894 5893 5892 5891 5891 5890 5890 5890 5889 5889 5888 5888 5888 5887 5887
5896 5898 5898 5896 5897 5899 5901 5904 5907 5908 5908 5909 5909 5909 5909 5909 5909 5908 5907 5906 5905 5903 5902 5900 5900 5899 5897 5896 5896 5895 5894 5892 5891 5890 5889 5888 5887 5886 5885 5885 5885 5885 5885 5884 5884 5883 5883 5882 5882
5888 5890 5890 5890 5891 5894 5897 5900 5902 5904 5904 5906 5906 5906 5906 5906 5906 5905 5904 5902 5901 5899 5898 5896 5895 5895 5894 5892 5892 5890 5889 5888 5887 5886 5885 5883 5882 5881 5881 5880 5880 5879 5879 5879 5878 5878 5877 5877 5877
5882 5883 5884 5885 5887 5890 5893 5896 5898 5900 5901 5902 5902 5902 5903 5902 5902 5901 5900 5898 5896 5895 5893 5892 5891 5890 5889 5888 5888 5886 5885 5884 5883 5882 5880 5879 5878 5877 5876 5875 5875 5874 5874 5873 5873 5872 5872 5872 5871
5877 5879 5880 5881 5884 5886 5889 5892 5894 5895 5897 5898 5898 5898 5899 5898 5897 5896 5895 5893 5892 5890 5889 5888 5887 5886 5885 5884 5883 5882 5881 5880 5879 5878 5876 5875 5874 5873 5872 5871 5870 5869 5868 5868 5867 5867 5867 5866 5866
5875 5875 5876 5878 5880 5883 5886 5888 5890 5891 5892 5894 5894 5894 5894 5894 5893 5891 5890 5889 5887 5886 5885 5884 5883 5883 5881 5880 5880 5879 5877 5876 5874 5873 5872 5870 5869 5868 5866 5865 5864 5863 5862 5862 5861 5861 5860 5860 5860
5873 5874 5875 5876 5878 5880 5883 5885 5886 5887 5888 5889 5889 5890 5889 5889 5888 5887 5885 5884 5883 5882 5881 5881 5880 5879 5878 5877 5876 5875 5873 5872 5870 5868 5867 5866 5864 5862 5860 5859 5858 5857 5856 5855 5854 5854 5854 5854 5854
5873 5874 5875 5875 5877 5878 5882 5883 5883 5883 5884 5885 5885 5884 5884 5883 5883 5882 5881 5880 5879 5878 5877 5877 5877 5876 5875 5874 5872 5871 5869 5868 5866 5864 5862 5861 5859 5857 5855 5853 5852 5851 5849 5848 5848 5847 5847 5847 5847
5874 5876 5876 5875 5875 5876 5878 5879 5879 5879 5880 5880 5880 5879 5879 5878 5878 5877 5877 5876 5875 5875 5874 5874 5873 5872 5871 5870 5869 5867 5865 5863 5861 5859 5857 5855 5853 5851 5849 5847 5845 5844 5843 5842 5841 5840 5840 5839 5840
5877 5876 5874 5874 5873 5874 5874 5875 5875 5875 5875 5875 5875 5874 5873 5873 5873 5873 5873 5873 5872 5872 5872 5871 5870 5869 5868 5866 5865 5863 5861 5858 5856 5853 5851 5849 5847 5845 5843 5841 5839 5837 5836 5835 5834 5833 5833 5832 5832
5875 5874 5873 5871 5871 5872 5872 5872 5871 5870 5870 5870 5869 5868 5868 5868 5869 5869 5869 5870 5870 5870 5869 5869 5867 5866 5864 5863 5860 5858 5856 5853 5851 5848 5846 5843 5841 5838 5836 5834 5833 5831 5830 5828 5827 5826 5826 5825 5825
5874 5874 5872 5870 5870 5870 5869 5869 5867 5866 5865 5865 5864 5864 5864 5865 5865 5865 5866 5867 5867 5867 5867 5865 5864 5862 5861 5858 5856 5853 5850 5848 5845 5842 5840 5837 5835 5832 5830 5828 5826 5824 5823 5822 5820 5819 5818 5818 5818
5875 5874 5872 5871 5869 5868 5867 5866 5864 5863 5861 5861 5861 5861 5861 5861 5862 5862 5863 5864 5864 5864 5863 5862 5860 5859 5856 5854 5851 5849 5846 5843 5840 5837 5834 5832 5829 5826 5824 5822 5820 5818 5816 5815 5814 5813 5811 5811 5811
5875 5873 5872 5870 5869 5868 5867 5865 5863 5861 5860 5859 5858 5858 5858 5859 5860 5861 5862 5862 5862 5861 5860 5859 5857 5855 5852 5850 5847 5844 5841 5838 5835 5832 5830 5827 5824 5821 5819 5816 5814 5812 5810 5808 5807 5806 5804 5804 5803
5874 5873 5871 5870 5869 5868 5867 5866 5864 5861 5860 5859 5859 5858 5859 5859 5860 5860 5861 5860 5860 5859 5857 5856 5853 5851 5849 5846 5844 5841 5838 5834 5831 5828 5825 5823 5820 5817 5814 5812 5809 5807 5804 5802 5800 5799 5797 5796 5795
5873 5872 5871 5870 5870 5870 5868 5867 5865 5863 5861 5861 5860 5859 5859 5859 5860 5859 5859 5858 5857 5856 5854 5853 5851 5848 5846 5843 5840 5837 5834 5831 5828 5825 5821 5818 5815 5812 5810 5807 5804 5801 5799 5796 5794 5791 5790 5788 5786
5873 5873 5874 5873 5872 5870 5867 5866 5866 5863 5862 5861 5860 5859 5859 5859 5858 5858 5857 5856 5855 5854 5852 5850 5848 5846 5843 5840 5837 5834 5831 5827 5824 5821 5817 5813 5810 5807 5804 5801 5798 5795 5793 5790 5787 5784 5781 5779 5777
5872 5873 5874 5874 5873 5870 5867 5866 5865 5863 5862 5861 5860 5859 5858 5857 5857 5856 5855 5854 5853 5852 5850 5848 5846 5843 5840 5837 5834 5831 5827 5824 5820 5816 5812 5809 5805 5801 5798 5795 5792 5788 5785 5782 5779 5776 5773 5770 5768
5872 5872 5871 5871 5870 5870 5867 5865 5864 5862 5861 5860 5859 5858 5857 5856 5855 5854 5853 5852 5851 5850 5848 5845 5843 5840 5837 5834 5831 5827 5823 5819 5815 5811 5807 5803 5799 5796 5792 5788 5784 5781 5777 5773 5770 5766 5763 5760 5757
5871 5870 5870 5870 5870 5871 5868 5865 5864 5861 5860 5859 5858 5857 5856 5855 5854 5853 5852 5850 5849 5847 5845 5843 5840 5837 5834 5830 5826 5822 5818 5814 5810 5806 5802 5797 5793 5789 5785 5781 5777 5772 5768 5764 5760 5756 5753 5750 5747
5870 5869 5868 5869 5868 5868 5869 5868 5862 5860 5859 5858 5857 5855 5854 5853 5852 5851 5849 5848 5846 5844 5842 5840 5837 5833 5829 5825 5821 5817 5813 5808 5804 5800 5795 5791 5786 5782 5777 5773 5768 5763 5759 5754 5750 5746 5742 5739 5735
5867 5867 5866 5867 5866 5865 5866 5867 5859 5858 5857 5856 5855 5854 5852 5851 5849 5848 5846 5845 5843 5841 5838 5835 5832 5828 5824 5820 5816 5811 5807 5802 5797 5793 5788 5784 5779 5774 5769 5764 5759 5754 5749 5744 5739 5735 5731 5727 5723